Time,TemperatureF,DewpointF,PressureIn,WindDirection,WindDirectionDegrees,WindSpeedMPH,WindSpeedGustMPH,Humidity,HourlyPrecipIn,Conditions,Clouds,dailyrainin,SolarRadiationWatts/m^2,SoftwareType,DateUTC
2013-09-26 00:22:00,41.0,39.0,-100.00,South,169,3.0,5.0,90,0.00,,,-99.99,0.000000,,2013-09-26 06:22:00,
2013-09-26 00:50:00,41.0,39.0,-100.00,South,178,3.0,4.0,93,0.00,,,-99.99,0.000000,,2013-09-26 06:50:00,
2013-09-26 01:22:00,41.0,39.0,-100.00,South,178,3.0,4.0,93,0.00,,,-99.99,0.000000,,2013-09-26 07:22:00,
2013-09-26 01:32:00,41.0,39.0,-100.00,South,178,3.0,4.0,93,0.00,,,-99.99,0.000000,,2013-09-26 07:32:00,
2013-09-26 01:42:00,41.0,39.0,-100.00,South,178,3.0,4.0,93,0.00,,,-99.99,0.000000,,2013-09-26 07:42:00,
2013-09-26 02:22:00,41.0,39.0,-100.00,South,186,3.0,4.0,95,0.00,,,-99.99,0.000000,,2013-09-26 08:22:00,
2013-09-26 02:52:00,41.0,39.0,-100.00,SSE,163,3.0,5.0,94,0.00,,,-99.99,0.000000,,2013-09-26 08:52:00,
2013-09-26 04:53:00,41.0,40.0,-100.00,ESE,123,3.0,4.0,96,0.00,,,-99.99,0.000000,,2013-09-26 10:53:00,
2013-09-26 05:50:00,41.0,39.0,-100.00,SSE,161,4.0,6.0,91,0.00,,,-99.99,0.000000,,2013-09-26 11:50:00,
2013-09-26 05:52:00,41.0,39.0,-100.00,South,177,4.0,6.0,93,0.00,,,-99.99,0.000000,,2013-09-26 11:52:00,
2013-09-26 06:21:00,41.0,39.0,-100.00,SSE,161,4.0,6.0,91,0.00,,,-99.99,0.000000,,2013-09-26 12:21:00,
2013-09-26 06:32:00,41.0,39.0,-100.00,SSE,161,4.0,6.0,91,0.00,,,-99.99,0.000000,,2013-09-26 12:32:00,
2013-09-26 06:42:00,41.0,39.0,-100.00,SSE,161,4.0,6.0,91,0.00,,,-99.99,0.000000,,2013-09-26 12:42:00,
2013-09-26 07:52:00,41.0,39.0,-100.00,SSE,165,4.0,5.0,91,0.00,,,-99.99,4.000000,,2013-09-26 13:52:00,
2013-09-26 08:22:00,42.0,40.0,-100.00,South,169,3.0,4.0,93,0.00,,,-99.99,29.000000,,2013-09-26 14:22:00,
2013-09-26 10:50:00,46.0,38.0,-100.00,WNW,293,2.0,3.0,73,0.00,,,-99.99,179.000000,,2013-09-26 16:50:00,
2013-09-26 10:53:00,46.0,38.0,-100.00,SSW,202,1.0,3.0,74,0.00,,,-99.99,186.000000,,2013-09-26 16:53:00,
2013-09-26 11:23:00,46.0,38.0,-100.00,WNW,293,2.0,3.0,73,0.00,,,-99.99,179.000000,,2013-09-26 17:23:00,
2013-09-26 11:34:00,46.0,38.0,-100.00,WNW,293,2.0,3.0,73,0.00,,,-99.99,179.000000,,2013-09-26 17:34:00,
2013-09-26 11:43:00,46.0,38.0,-100.00,WNW,293,2.0,3.0,73,0.00,,,-99.99,179.000000,,2013-09-26 17:43:00,
2013-09-26 13:52:00,50.0,39.0,-100.00,NE,56,4.0,5.0,66,0.00,,,-99.99,227.000000,,2013-09-26 19:52:00,
2013-09-26 15:50:00,54.0,40.0,-100.00,East,94,4.0,7.0,58,0.00,,,-99.99,365.000000,,2013-09-26 21:50:00,
2013-09-26 16:24:00,54.0,40.0,-100.00,East,94,4.0,7.0,58,0.00,,,-99.99,365.000000,,2013-09-26 22:24:00,
2013-09-26 16:32:00,54.0,40.0,-100.00,East,94,4.0,7.0,58,0.00,,,-99.99,365.000000,,2013-09-26 22:32:00,
2013-09-26 16:42:00,54.0,40.0,-100.00,East,94,4.0,7.0,58,0.00,,,-99.99,365.000000,,2013-09-26 22:42:00,
2013-09-26 17:53:00,50.0,39.0,-100.00,NW,317,7.0,10.0,66,0.00,,,-99.99,32.000000,,2013-09-26 23:53:00,
2013-09-26 18:22:00,48.0,40.0,-100.00,NW,316,6.0,9.0,72,0.00,,,-99.99,7.000000,,2013-09-27 00:22:00,
2013-09-26 20:50:00,44.0,43.0,-100.00,SE,140,1.0,4.0,96,0.03,,,-99.99,0.000000,,2013-09-27 02:50:00,
2013-09-26 21:21:00,44.0,43.0,-100.00,SE,140,1.0,4.0,96,0.03,,,-99.99,0.000000,,2013-09-27 03:21:00,
2013-09-26 21:34:00,44.0,43.0,-100.00,SE,140,1.0,4.0,96,0.03,,,-99.99,0.000000,,2013-09-27 03:34:00,
2013-09-26 21:44:00,44.0,43.0,-100.00,SE,140,1.0,4.0,96,0.03,,,-99.99,0.000000,,2013-09-27 03:44:00,
2013-09-26 23:23:00,41.0,40.0,-100.00,SSW,199,5.0,8.0,95,0.05,,,-99.99,0.000000,,2013-09-27 05:23:00,
2013-09-26 23:52:00,41.0,40.0,-100.00,South,177,4.0,6.0,96,0.05,,,-99.99,0.000000,,2013-09-27 05:52:00,